ASA383 KSFO-KSAN

Flight info

Callsign ASA383
Flight time 1h 5m
Altitude 35000
Route WESLA5 YYUNG LAX COMIX2
Aircraft B738/M-SDE2E3FGHIRWXY/LB1

Departure

Time 2026-04-25 05:25
Airport San Francisco International Airport (KSFO)

Arrival

Time 2026-04-25 06:30
Airport San Diego International Airport (KSAN)
Time Latitude Longitude Altitude Speed Heading
2026-04-25 04:59 37.61308 -122.38366 21 ft 0 kts 298°
2026-04-25 05:12 37.61299 -122.38346 22 ft 4 kts 299°
2026-04-25 05:12 37.61284 -122.38321 22 ft 4 kts 335°
2026-04-25 05:12 37.61261 -122.38319 22 ft 4 kts 25°
2026-04-25 05:13 37.61254 -122.38323 23 ft 1 kts 29°
2026-04-25 05:17 37.61263 -122.38317 21 ft 5 kts 29°
2026-04-25 05:17 37.61294 -122.38290 23 ft 12 kts 45°
2026-04-25 05:17 37.61382 -122.38148 23 ft 16 kts 39°
2026-04-25 05:17 37.61376 -122.38021 21 ft 18 kts 118°
2026-04-25 05:18 37.61313 -122.37872 21 ft 21 kts 117°
2026-04-25 05:18 37.61244 -122.37705 21 ft 21 kts 117°
2026-04-25 05:18 37.61249 -122.37530 22 ft 21 kts 57°
2026-04-25 05:18 37.61322 -122.37454 21 ft 20 kts 27°
2026-04-25 05:19 37.61484 -122.37348 23 ft 19 kts 30°
2026-04-25 05:19 37.61545 -122.37268 21 ft 19 kts 61°
2026-04-25 05:19 37.61551 -122.37110 21 ft 18 kts 114°
2026-04-25 05:19 37.61493 -122.36970 21 ft 18 kts 119°
2026-04-25 05:20 37.61412 -122.36853 21 ft 18 kts 131°
2026-04-25 05:20 37.61334 -122.36705 21 ft 22 kts 118°
2026-04-25 05:20 37.61262 -122.36533 21 ft 22 kts 118°
2026-04-25 05:20 37.61190 -122.36366 21 ft 21 kts 118°
2026-04-25 05:21 37.61124 -122.36203 22 ft 21 kts 118°
2026-04-25 05:21 37.61072 -122.36084 21 ft 6 kts 118°
2026-04-25 05:21 37.61068 -122.36076 21 ft 2 kts 118°
2026-04-25 05:21 37.61047 -122.36009 21 ft 11 kts 101°
2026-04-25 05:22 37.61074 -122.35925 21 ft 9 kts 45°
2026-04-25 05:22 37.61101 -122.35900 21 ft 0 kts 31°
2026-04-25 05:23 37.61105 -122.35899 21 ft 2 kts 27°
2026-04-25 05:23 37.61125 -122.35886 23 ft 4 kts 26°
2026-04-25 05:23 37.61154 -122.35868 21 ft 5 kts 26°
2026-04-25 05:24 37.61182 -122.35868 21 ft 5 kts 321°
2026-04-25 05:24 37.61196 -122.35898 21 ft 2 kts 297°
2026-04-25 05:24 37.61207 -122.35923 23 ft 9 kts 297°
2026-04-25 05:24 37.61341 -122.36244 22 ft 77 kts 298°
2026-04-25 05:25 37.61687 -122.37068 22 ft 136 kts 298°
2026-04-25 05:25 37.62180 -122.38229 424 ft 152 kts 295°
2026-04-25 05:25 37.62666 -122.39422 1185 ft 156 kts 296°
2026-04-25 05:25 37.63192 -122.40652 1833 ft 163 kts 297°
2026-04-25 05:26 37.63785 -122.42019 2171 ft 191 kts 297°
2026-04-25 05:26 37.64466 -122.43571 2397 ft 213 kts 297°
2026-04-25 05:26 37.65207 -122.45248 2832 ft 223 kts 298°
2026-04-25 05:26 37.65978 -122.46988 3314 ft 233 kts 298°
2026-04-25 05:27 37.66741 -122.48848 3823 ft 247 kts 287°
2026-04-25 05:27 37.66795 -122.51051 4390 ft 261 kts 255°
2026-04-25 05:27 37.65905 -122.53069 5058 ft 270 kts 226°
2026-04-25 05:27 37.64343 -122.54328 5787 ft 276 kts 197°
2026-04-25 05:28 37.62409 -122.54486 6544 ft 278 kts 167°
2026-04-25 05:28 37.60611 -122.53703 7313 ft 279 kts 155°
2026-04-25 05:28 37.58820 -122.52730 8072 ft 282 kts 161°
2026-04-25 05:28 37.56868 -122.52459 8810 ft 285 kts 183°
2026-04-25 05:29 37.54881 -122.52642 9568 ft 288 kts 184°
2026-04-25 05:29 37.52864 -122.52839 10236 ft 294 kts 184°
2026-04-25 05:29 37.50763 -122.53030 10581 ft 311 kts 184°
2026-04-25 05:29 37.48548 -122.53215 10928 ft 327 kts 183°
2026-04-25 05:30 37.46226 -122.53394 11334 ft 341 kts 183°
2026-04-25 05:30 37.43828 -122.53569 11844 ft 350 kts 183°
2026-04-25 05:30 37.41375 -122.53740 12430 ft 357 kts 183°
2026-04-25 05:30 37.38897 -122.53908 13009 ft 365 kts 183°
2026-04-25 05:31 37.36340 -122.54078 13638 ft 371 kts 183°
2026-04-25 05:31 37.33738 -122.54250 14205 ft 378 kts 183°
2026-04-25 05:31 37.31096 -122.54424 14835 ft 382 kts 183°
2026-04-25 05:31 37.28429 -122.54600 15502 ft 386 kts 183°
2026-04-25 05:32 37.25744 -122.54776 16222 ft 387 kts 184°
2026-04-25 05:32 37.23036 -122.54954 16882 ft 391 kts 184°
2026-04-25 05:32 37.20310 -122.55133 17533 ft 395 kts 184°
2026-04-25 05:32 37.17551 -122.55313 18173 ft 399 kts 184°
2026-04-25 05:33 37.14778 -122.55495 18808 ft 400 kts 185°
2026-04-25 05:33 37.11995 -122.55677 19426 ft 402 kts 185°
2026-04-25 05:33 37.09192 -122.55860 19995 ft 404 kts 185°
2026-04-25 05:33 37.06372 -122.56044 20553 ft 407 kts 186°
2026-04-25 05:34 37.03531 -122.56179 21100 ft 412 kts 181°
2026-04-25 05:34 37.00705 -122.55716 21619 ft 420 kts 169°
2026-04-25 05:34 36.97931 -122.54523 22150 ft 427 kts 158°
2026-04-25 05:34 36.95304 -122.52718 22653 ft 433 kts 153°
2026-04-25 05:35 36.92705 -122.50780 23118 ft 437 kts 153°
2026-04-25 05:35 36.90094 -122.48805 23584 ft 441 kts 153°
2026-04-25 05:35 36.87464 -122.46819 23986 ft 444 kts 153°
2026-04-25 05:35 36.84807 -122.44830 24392 ft 446 kts 153°
2026-04-25 05:36 36.82135 -122.42847 24825 ft 448 kts 154°
2026-04-25 05:36 36.79445 -122.40863 25208 ft 450 kts 154°
2026-04-25 05:36 36.76741 -122.38879 25638 ft 452 kts 154°
2026-04-25 05:36 36.74020 -122.36887 26029 ft 454 kts 155°
2026-04-25 05:37 36.71288 -122.34892 26392 ft 457 kts 155°
2026-04-25 05:37 36.68573 -122.32910 26722 ft 460 kts 155°
2026-04-25 05:37 36.65800 -122.30887 27038 ft 464 kts 155°
2026-04-25 05:37 36.63009 -122.28853 27385 ft 466 kts 155°
2026-04-25 05:38 36.60211 -122.26814 27793 ft 467 kts 155°
2026-04-25 05:38 36.57401 -122.24766 28159 ft 468 kts 156°
2026-04-25 05:38 36.54582 -122.22715 28489 ft 471 kts 156°
2026-04-25 05:38 36.51746 -122.20654 28795 ft 474 kts 156°
2026-04-25 05:39 36.48893 -122.18582 29113 ft 476 kts 156°
2026-04-25 05:39 36.46030 -122.16504 29432 ft 478 kts 156°
2026-04-25 05:39 36.43150 -122.14416 29748 ft 480 kts 156°
2026-04-25 05:39 36.40270 -122.12328 30138 ft 479 kts 156°
2026-04-25 05:40 36.37397 -122.10246 30546 ft 477 kts 156°
2026-04-25 05:40 36.34535 -122.08174 30917 ft 476 kts 157°
2026-04-25 05:40 36.31708 -122.06130 31231 ft 477 kts 157°
2026-04-25 05:40 36.28834 -122.04057 31429 ft 479 kts 157°
2026-04-25 05:41 36.25953 -122.01980 31753 ft 479 kts 157°
2026-04-25 05:41 36.23083 -121.99910 32170 ft 476 kts 157°
2026-04-25 05:41 36.20226 -121.97850 32568 ft 475 kts 157°
2026-04-25 05:41 36.17373 -121.95798 32885 ft 475 kts 157°
2026-04-25 05:42 36.14512 -121.93742 33168 ft 475 kts 158°
2026-04-25 05:42 36.11658 -121.91692 33505 ft 474 kts 158°
2026-04-25 05:42 36.08811 -121.89647 33865 ft 473 kts 158°
2026-04-25 05:42 36.05970 -121.87609 34172 ft 472 kts 158°
2026-04-25 05:43 36.03127 -121.85568 34421 ft 473 kts 156°
2026-04-25 05:43 36.00413 -121.83212 34656 ft 483 kts 147°
2026-04-25 05:43 35.97963 -121.80322 34926 ft 492 kts 137°
2026-04-25 05:44 35.93695 -121.73596 34997 ft 501 kts 133°
2026-04-25 05:44 35.89544 -121.66781 34984 ft 497 kts 134°
2026-04-25 05:45 35.85375 -121.60059 34993 ft 492 kts 134°
2026-04-25 05:45 35.81173 -121.53393 34980 ft 492 kts 134°
2026-04-25 05:46 35.76964 -121.46751 34989 ft 492 kts 135°
2026-04-25 05:46 35.72751 -121.40107 34998 ft 493 kts 135°
2026-04-25 05:47 35.68528 -121.33455 34994 ft 494 kts 135°
2026-04-25 05:47 35.64291 -121.26790 34989 ft 494 kts 134°
2026-04-25 05:48 35.60076 -121.20174 34993 ft 496 kts 135°
2026-04-25 05:48 35.55816 -121.13497 35003 ft 497 kts 135°
2026-04-25 05:49 35.51545 -121.06817 34979 ft 498 kts 135°
2026-04-25 05:49 35.47417 -120.99954 35000 ft 501 kts 131°
2026-04-25 05:50 35.43420 -120.92930 34999 ft 502 kts 131°
2026-04-25 05:50 35.39415 -120.85925 35007 ft 501 kts 131°
2026-04-25 05:51 35.35377 -120.78955 35003 ft 501 kts 132°
2026-04-25 05:51 35.31362 -120.72074 35019 ft 499 kts 132°
2026-04-25 05:52 35.27320 -120.65165 35013 ft 499 kts 132°
2026-04-25 05:52 35.23284 -120.58279 35020 ft 498 kts 132°
2026-04-25 05:53 35.19254 -120.51410 35012 ft 496 kts 133°
2026-04-25 05:53 35.15227 -120.44561 35005 ft 495 kts 133°
2026-04-25 05:54 35.11207 -120.37736 35016 ft 494 kts 133°
2026-04-25 05:54 35.05214 -120.27589 35005 ft 493 kts 133°
2026-04-25 05:55 35.01206 -120.20818 35007 ft 492 kts 133°
2026-04-25 05:55 34.97197 -120.14060 35005 ft 492 kts 133°
2026-04-25 05:56 34.93185 -120.07310 34997 ft 492 kts 133°
2026-04-25 05:56 34.89193 -120.00604 34992 ft 492 kts 133°
2026-04-25 05:57 34.85169 -119.93860 34969 ft 493 kts 133°
2026-04-25 05:57 34.81134 -119.87108 34967 ft 493 kts 134°
2026-04-25 05:58 34.77089 -119.80353 34961 ft 495 kts 134°
2026-04-25 05:58 34.73033 -119.73591 34949 ft 495 kts 134°
2026-04-25 05:59 34.68957 -119.66811 34951 ft 498 kts 134°
2026-04-25 05:59 34.64852 -119.59997 34941 ft 501 kts 134°
2026-04-25 06:00 34.60761 -119.53216 34936 ft 502 kts 134°
2026-04-25 06:00 34.56621 -119.46366 34943 ft 503 kts 134°
2026-04-25 06:01 34.52477 -119.39521 34923 ft 503 kts 134°
2026-04-25 06:01 34.48331 -119.32686 34928 ft 502 kts 134°
2026-04-25 06:02 34.44198 -119.25887 34944 ft 501 kts 135°
2026-04-25 06:02 34.40069 -119.19109 34966 ft 500 kts 135°
2026-04-25 06:03 34.35962 -119.12382 34984 ft 500 kts 135°
2026-04-25 06:03 34.31826 -119.05617 34978 ft 500 kts 135°
2026-04-25 06:04 34.27679 -118.98846 34967 ft 501 kts 135°
2026-04-25 06:04 34.23524 -118.92077 34987 ft 502 kts 135°
2026-04-25 06:05 34.19354 -118.85299 34965 ft 504 kts 135°
2026-04-25 06:05 34.15164 -118.78498 34966 ft 506 kts 135°
2026-04-25 06:06 34.10989 -118.71731 34965 ft 506 kts 135°
2026-04-25 06:06 34.06778 -118.64918 34995 ft 507 kts 135°
2026-04-25 06:07 34.02536 -118.58078 34535 ft 515 kts 135°
2026-04-25 06:07 34.00389 -118.54618 33926 ft 515 kts 135°
2026-04-25 06:07 33.98248 -118.51164 33223 ft 515 kts 135°
2026-04-25 06:08 33.96103 -118.47708 32495 ft 514 kts 134°
2026-04-25 06:08 33.93968 -118.44273 31843 ft 512 kts 134°
2026-04-25 06:08 33.91769 -118.40920 31120 ft 508 kts 137°
2026-04-25 06:08 33.89400 -118.37797 30415 ft 504 kts 140°
2026-04-25 06:09 33.86958 -118.34768 29721 ft 502 kts 140°
2026-04-25 06:09 33.84542 -118.31778 29130 ft 496 kts 140°
2026-04-25 06:09 33.82176 -118.28788 28578 ft 490 kts 139°
2026-04-25 06:09 33.79864 -118.25811 27999 ft 485 kts 139°
2026-04-25 06:10 33.77610 -118.22889 27501 ft 479 kts 138°
2026-04-25 06:10 33.75365 -118.19955 26962 ft 475 kts 138°
2026-04-25 06:10 33.73151 -118.17040 26424 ft 470 kts 137°
2026-04-25 06:10 33.70957 -118.14149 25904 ft 466 kts 137°
2026-04-25 06:11 33.68785 -118.11290 25386 ft 462 kts 137°
2026-04-25 06:11 33.66628 -118.08457 24880 ft 458 kts 137°
2026-04-25 06:11 33.64484 -118.05645 24357 ft 454 kts 137°
2026-04-25 06:11 33.62353 -118.02856 23830 ft 452 kts 137°
2026-04-25 06:12 33.60237 -118.00089 23275 ft 449 kts 136°
2026-04-25 06:12 33.58139 -117.97344 22714 ft 445 kts 136°
2026-04-25 06:12 33.56057 -117.94624 22185 ft 441 kts 137°
2026-04-25 06:12 33.53965 -117.91959 21667 ft 436 kts 139°
2026-04-25 06:13 33.51807 -117.89433 21159 ft 431 kts 141°
2026-04-25 06:13 33.49638 -117.86977 20662 ft 427 kts 141°
2026-04-25 06:13 33.47519 -117.84566 20184 ft 424 kts 141°
2026-04-25 06:14 33.43295 -117.79699 19186 ft 418 kts 141°
2026-04-25 06:14 33.41158 -117.77361 18719 ft 414 kts 143°
2026-04-25 06:14 33.39002 -117.75080 18223 ft 412 kts 143°
2026-04-25 06:14 33.36855 -117.72825 17680 ft 410 kts 143°
2026-04-25 06:15 33.34727 -117.70580 17179 ft 406 kts 143°
2026-04-25 06:15 33.32619 -117.68343 16694 ft 403 kts 143°
2026-04-25 06:15 33.30539 -117.66128 16213 ft 400 kts 143°
2026-04-25 06:15 33.28470 -117.63922 15737 ft 397 kts 143°
2026-04-25 06:16 33.26418 -117.61735 15273 ft 394 kts 143°
2026-04-25 06:16 33.24381 -117.59569 14766 ft 392 kts 143°
2026-04-25 06:16 33.22340 -117.57416 14259 ft 391 kts 143°
2026-04-25 06:16 33.20325 -117.55299 13717 ft 391 kts 143°
2026-04-25 06:17 33.18290 -117.53161 13137 ft 389 kts 143°
2026-04-25 06:17 33.16262 -117.51029 12588 ft 387 kts 143°
2026-04-25 06:17 33.14249 -117.48913 12063 ft 385 kts 143°
2026-04-25 06:17 33.12196 -117.46922 11730 ft 374 kts 149°
2026-04-25 06:18 33.10136 -117.45080 11447 ft 369 kts 142°
2026-04-25 06:18 33.08363 -117.42878 11139 ft 368 kts 136°
2026-04-25 06:18 33.06662 -117.40594 10915 ft 372 kts 135°
2026-04-25 06:18 33.04922 -117.38247 10677 ft 382 kts 135°
2026-04-25 06:19 33.03173 -117.35901 10463 ft 385 kts 135°
2026-04-25 06:19 33.01394 -117.33533 10222 ft 382 kts 135°
2026-04-25 06:19 32.99622 -117.31192 10049 ft 381 kts 135°
2026-04-25 06:19 32.97841 -117.28852 9747 ft 380 kts 135°
2026-04-25 06:20 32.96067 -117.26530 9272 ft 377 kts 135°
2026-04-25 06:20 32.94310 -117.24234 8764 ft 374 kts 135°
2026-04-25 06:20 32.92566 -117.21959 8273 ft 370 kts 135°
2026-04-25 06:20 32.90838 -117.19706 7787 ft 367 kts 135°
2026-04-25 06:21 32.89122 -117.17470 7286 ft 365 kts 135°
2026-04-25 06:21 32.87454 -117.15297 7100 ft 353 kts 135°
2026-04-25 06:21 32.85824 -117.13173 6939 ft 342 kts 135°
2026-04-25 06:21 32.84244 -117.11118 6797 ft 332 kts 135°
2026-04-25 06:22 32.82710 -117.09123 6657 ft 322 kts 135°
2026-04-25 06:22 32.81222 -117.07189 6524 ft 313 kts 135°
2026-04-25 06:22 32.79771 -117.05306 6381 ft 305 kts 135°
2026-04-25 06:22 32.78354 -117.03466 6154 ft 297 kts 135°
2026-04-25 06:23 32.76987 -117.01695 5663 ft 295 kts 135°
2026-04-25 06:23 32.75594 -116.99892 5039 ft 297 kts 134°
2026-04-25 06:23 32.74306 -116.97987 4516 ft 295 kts 117°
2026-04-25 06:23 32.73637 -116.95740 4188 ft 285 kts 108°
2026-04-25 06:24 32.73068 -116.93500 3703 ft 282 kts 107°
2026-04-25 06:24 32.72292 -116.91416 3426 ft 269 kts 129°
2026-04-25 06:24 32.70906 -116.90090 3367 ft 248 kts 159°
2026-04-25 06:24 32.69270 -116.89807 3368 ft 233 kts 191°
2026-04-25 06:25 32.67848 -116.90533 3385 ft 219 kts 218°
2026-04-25 06:25 32.66844 -116.91828 3398 ft 217 kts 238°
2026-04-25 06:25 32.66027 -116.93338 3370 ft 217 kts 239°
2026-04-25 06:25 32.65635 -116.94975 3315 ft 203 kts 278°
2026-04-25 06:26 32.66273 -116.96358 3322 ft 187 kts 315°
2026-04-25 06:26 32.67094 -116.97476 3316 ft 175 kts 303°
2026-04-25 06:26 32.67720 -116.98713 3327 ft 174 kts 297°
2026-04-25 06:26 32.68255 -117.00011 3255 ft 178 kts 293°
2026-04-25 06:27 32.68754 -117.01380 3064 ft 181 kts 291°
2026-04-25 06:27 32.69218 -117.02759 2844 ft 179 kts 289°
2026-04-25 06:27 32.69675 -117.04112 2633 ft 176 kts 291°
2026-04-25 06:27 32.70065 -117.05456 2429 ft 173 kts 285°
2026-04-25 06:28 32.70403 -117.06818 2192 ft 172 kts 284°
2026-04-25 06:28 32.70733 -117.08166 2036 ft 166 kts 284°
2026-04-25 06:28 32.71054 -117.09480 1774 ft 166 kts 284°
2026-04-25 06:28 32.71373 -117.10793 1519 ft 165 kts 284°
2026-04-25 06:29 32.71691 -117.12100 1274 ft 164 kts 284°
2026-04-25 06:29 32.71997 -117.13358 1022 ft 156 kts 284°
2026-04-25 06:29 32.72289 -117.14562 776 ft 152 kts 285°
2026-04-25 06:29 32.72584 -117.15774 570 ft 155 kts 285°
2026-04-25 06:30 32.72884 -117.16995 284 ft 153 kts 285°
2026-04-25 06:30 32.73174 -117.18204 45 ft 154 kts 284°
2026-04-25 06:30 32.73441 -117.19316 20 ft 101 kts 286°
2026-04-25 06:30 32.73531 -117.19682 26 ft 20 kts 283°
2026-04-25 06:31 32.73516 -117.19818 26 ft 9 kts 249°
2026-04-25 06:31 32.73492 -117.19853 24 ft 5 kts 193°
2026-04-25 06:31 32.73483 -117.19855 23 ft 1 kts 192°
2026-04-25 06:31 32.73483 -117.19856 23 ft 0 kts 192°
2026-04-25 06:32 32.73482 -117.19856 23 ft 1 kts 194°
2026-04-25 06:33 32.73479 -117.19896 23 ft 12 kts 285°
2026-04-25 06:33 32.73507 -117.20009 22 ft 15 kts 286°
2026-04-25 06:33 32.73535 -117.20128 23 ft 15 kts 285°
2026-04-25 06:33 32.73528 -117.20231 23 ft 12 kts 203°
2026-04-25 06:34 32.73447 -117.20259 20 ft 12 kts 195°
2026-04-25 06:34 32.73375 -117.20278 20 ft 6 kts 176°
2026-04-25 06:34 32.73333 -117.20265 20 ft 6 kts 165°
2026-04-25 06:34 32.73289 -117.20257 21 ft 6 kts 189°
2026-04-25 06:35 32.73247 -117.20273 20 ft 6 kts 200°
2026-04-25 06:35 32.73236 -117.20279 21 ft 1 kts 200°
2026-04-25 06:35 32.73234 -117.20279 21 ft 0 kts 200°
2026-04-25 06:35 32.73232 -117.20280 21 ft 0 kts 200°